Roanoke, VA

4:32 AM EST on December 11, 2019 (GMT -0500)
Roanoke Regional-Woodrum

Weather History for KROA - November, 2019

Change the Weather History Date:

Friday, November 22, 2019

  Actual Average Record
Temperature  
Mean Temperature 51 °F 46 °F  
Max Temperature 60 °F 56 °F 77 °F (1940)
Min Temperature 42 °F 36 °F 17 °F (1964)
Degree Days  
Heating Degree Days 14 19  
Month to date heating degree days 465 341  
Since 1 July heating degree days 621 638  
Cooling Degree Days 0 0  
Month to date cooling degree days 0 0  
Year to date cooling degree days 1757 1207  
Growing Degree Days 1 (Base 50)    
Moisture  
Dew Point 41 °F    
Average Humidity 64    
Maximum Humidity 77    
Minimum Humidity 51    
Precipitation  
Precipitation 0.02 in 0.11 in 1.85 in (1992)
Month to date precipitation 0.23 2.50  
Year to date precipitation 38.62 37.41  
Snow  
Snow 0.00 in - - ()
Month to date snowfall T  
Since 1 July snowfall T  
Since 1 September snowfall T  
Snow Depth 0.00 in    
Sea Level Pressure  
Sea Level Pressure 30.01 in    
Wind  
Wind Speed 9 mph ()    
Max Wind Speed 22 mph    
Max Gust Speed 29 mph    
Visibility 10.0 miles    
Events Rain    
T = Trace of Precipitation, MM = Missing Value Source: Averaged Metar Reports

Daily Weather History Graph

Daily Weather History Graph

Search for Another Location

Airport or City:

Astronomy

Nov. 22, 2019 Rise Set
Actual Time 7:06 AM EST 5:05 PM EST
Civil Twilight 6:37 AM EST 5:33 PM EST
Nautical Twilight 6:06 AM EST 6:05 PM EST
Astronomical Twilight 5:34 AM EST 6:36 PM EST
Moon 2:18 AM EST (11/22) 2:58 PM EST (11/22)
Length of Visible Light 10h 55m
Length of Day
9h 59m
Waning Crescent, 20% of the Moon is Illuminated
Nov 22
Waning Crescent
Nov 26
New
Dec 4
First Quarter
Dec 12
Full
Dec 18
Last Quarter

Hourly Weather History & Observations

Time (EST) Temp. Windchill Dew Point Humidity Pressure Visibility Wind Dir Wind Speed Gust Speed Precip Events Conditions
12:54 AM 46.0 °F - 37.9 °F 73% 30.06 in 10.0 mi Calm Calm - N/A   Mostly Cloudy
1:54 AM 53.1 °F - 37.9 °F 57% 30.03 in 10.0 mi West 15.0 mph - N/A   Overcast
2:54 AM 55.0 °F - 37.0 °F 51% 30.01 in 10.0 mi West 17.3 mph 24.2 mph N/A   Overcast
3:54 AM 55.0 °F - 39.0 °F 55% 29.98 in 10.0 mi West 13.8 mph - N/A   Mostly Cloudy
4:54 AM 55.0 °F - 41.0 °F 59% 29.98 in 10.0 mi West 13.8 mph - N/A   Overcast
5:54 AM 55.0 °F - 41.0 °F 59% 29.97 in 10.0 mi West 6.9 mph - N/A   Scattered Clouds
6:54 AM 57.0 °F - 41.0 °F 55% 29.98 in 10.0 mi WSW 8.1 mph - N/A   Overcast
7:54 AM 55.9 °F - 41.0 °F 57% 29.99 in 10.0 mi West 12.7 mph 21.9 mph 0.00 in Rain Light Rain
8:54 AM 54.0 °F - 45.0 °F 72% 30.01 in 10.0 mi SW 9.2 mph - 0.00 in Rain Light Rain
10:54 AM 54.0 °F - 45.0 °F 72% 30.00 in 10.0 mi WSW 8.1 mph - 0.01 in Rain Light Rain
11:54 AM 55.9 °F - 46.0 °F 69% 29.95 in 10.0 mi WSW 8.1 mph - 0.00 in   Partly Cloudy
12:54 PM 57.9 °F - 48.0 °F 70% 29.92 in 10.0 mi West 8.1 mph - N/A   Mostly Cloudy
1:54 PM 60.1 °F - 46.0 °F 60% 29.92 in 10.0 mi NW 15.0 mph 21.9 mph N/A   Overcast
2:54 PM 57.0 °F - 46.9 °F 69% 29.96 in 10.0 mi WNW 11.5 mph - 0.00 in Rain Light Rain
3:54 PM 55.9 °F - 45.0 °F 67% 29.98 in 10.0 mi WNW 10.4 mph - 0.00 in   Mostly Cloudy
4:54 PM 55.0 °F - 43.0 °F 64% 29.99 in 10.0 mi WNW 6.9 mph - N/A   Mostly Cloudy
5:54 PM 53.1 °F - 42.1 °F 66% 30.01 in 10.0 mi WNW 11.5 mph - N/A   Scattered Clouds
6:54 PM 52.0 °F - 41.0 °F 66% 30.01 in 10.0 mi WNW 17.3 mph - 0.00 in   Clear
7:54 PM 50.0 °F - 37.0 °F 61% 30.05 in 10.0 mi NW 5.8 mph - N/A   Clear
8:54 PM 46.9 °F - 36.0 °F 66% 30.07 in 10.0 mi NW 12.7 mph - N/A   Clear
9:54 PM 45.0 °F 40.1 °F 34.0 °F 65% 30.08 in 10.0 mi NNW 9.2 mph - N/A   Clear
10:54 PM 44.1 °F 40.1 °F 33.1 °F 65% 30.08 in 10.0 mi North 6.9 mph - N/A   Clear
11:54 PM 42.1 °F 38.4 °F 33.1 °F 70% 30.09 in 10.0 mi ENE 5.8 mph - N/A   Clear